Morgantown, WV

1:56 PM EDT on September 24, 2017 (GMT -0400)
Morgantown Municipal-Hart

Weather History for KMGW - June, 2014

Change the Weather History Date:

Sunday, June 8, 2014

  Actual Average Record
Temperature  
Mean Temperature 72 °F 67 °F  
Max Temperature 80 °F 78 °F 95 °F (1933)
Min Temperature 64 °F 57 °F 39 °F (1912)
Degree Days  
Heating Degree Days 0 2  
Month to date heating degree days 2 17  
Since 1 June heating degree days 2 17  
Since 1 July heating degree days 5406 5170  
Cooling Degree Days 7 4  
Month to date cooling degree days 44 28  
Year to date cooling degree days 153 95  
Since 1 June cooling degree days 44 28  
Growing Degree Days 22 (Base 50)    
Moisture  
Dew Point 63 °F    
Average Humidity 71    
Maximum Humidity 87    
Minimum Humidity 54    
Precipitation  
Precipitation 0.50 in 0.14 in 1.97 in (1942)
Month to date precipitation 1.22 1.10  
Year to date precipitation 16.71 18.29  
Sea Level Pressure  
Sea Level Pressure 29.86 in    
Wind  
Wind Speed 6 mph (South)    
Max Wind Speed 16 mph    
Max Gust Speed 27 mph    
Visibility 8 miles    
Events Rain    
T = Trace of Precipitation, MM = Missing Value Source: NWS Daily Summary

Daily Weather History Graph

Daily Weather History Graph

Search for Another Location

Airport or City:

Trip Planner

Search our weather history database for the weather conditions in past years. The results will help you decide how hot, cold, wet, or windy it might be!

Date:

Astronomy

Jun. 08, 2014 Rise Set
Actual Time 5:51 AM EDT 8:45 PM EDT
Civil Twilight 5:19 AM EDT 9:18 PM EDT
Nautical Twilight 4:38 AM EDT 9:58 PM EDT
Astronomical Twilight 3:52 AM EDT 10:46 PM EDT
Moon 4:03 PM EDT (6/8) 2:43 AM EDT (6/8)
Length of Visible Light 15h 58m
Length of Day
14h 53m
Waxing Gibbous, 77% of the Moon is Illuminated
Jun 8
Waxing Gibbous
Jun 13
Full
Jun 19
Last Quarter
Jun 27
New
Jul 5
First Quarter

Hourly Weather History & Observations

Time (EDT) Temp. Dew Point Humidity Pressure Visibility Wind Dir Wind Speed Gust Speed Precip Events Conditions
12:53 AM 69.1 °F 54.0 °F 58% 29.92 in 10.0 mi SSE 10.4 mph - N/A   Clear
1:53 AM 69.1 °F 54.0 °F 58% 29.91 in 10.0 mi SSE 9.2 mph - N/A   Clear
2:53 AM 68.0 °F 55.0 °F 63% 29.89 in 10.0 mi SSE 4.6 mph - N/A   Clear
3:53 AM 66.9 °F 55.9 °F 68% 29.87 in 10.0 mi SE 4.6 mph - N/A   Clear
4:53 AM 66.9 °F 57.0 °F 70% 29.87 in 10.0 mi South 4.6 mph - N/A   Clear
5:53 AM 66.9 °F 57.0 °F 70% 29.86 in 10.0 mi SSE 3.5 mph - N/A   Clear
6:53 AM 69.1 °F 57.9 °F 68% 29.85 in 10.0 mi SSE 5.8 mph - N/A   Partly Cloudy
7:53 AM 72.0 °F 59.0 °F 64% 29.85 in 10.0 mi SE 5.8 mph - N/A   Clear
8:53 AM 75.0 °F 60.1 °F 60% 29.85 in 10.0 mi SSE 8.1 mph - N/A   Clear
9:53 AM 78.1 °F 61.0 °F 56% 29.84 in 10.0 mi Variable 6.9 mph - N/A   Mostly Cloudy
10:35 AM 73.9 °F 62.1 °F 66% 29.88 in 2.0 mi SW 12.7 mph 27.6 mph 0.08 in Rain Light Rain
10:36 AM 73.9 °F 62.1 °F 66% 29.88 in 4.0 mi SW 12.7 mph 27.6 mph 0.08 in Rain Light Rain
10:49 AM 69.8 °F 64.4 °F 83% 29.89 in 1.8 mi SW 6.9 mph 17.3 mph 0.14 in Rain Rain
10:53 AM 69.1 °F 64.0 °F 84% 29.87 in 1.2 mi SSW 6.9 mph - 0.18 in Rain Heavy Rain
11:04 AM 69.1 °F 64.9 °F 87% 29.89 in 3.0 mi ESE 6.9 mph - 0.03 in Rain Rain
11:16 AM 69.1 °F 64.9 °F 87% 29.88 in 10.0 mi SE 6.9 mph - 0.03 in   Overcast
11:53 AM 72.0 °F 66.0 °F 81% 29.85 in 10.0 mi South 3.5 mph - 0.04 in   Mostly Cloudy
12:53 PM 75.0 °F 66.9 °F 76% 29.83 in 10.0 mi South 10.4 mph - 0.00 in   Mostly Cloudy
1:53 PM 79.0 °F 68.0 °F 69% 29.82 in 10.0 mi South 8.1 mph - N/A   Mostly Cloudy
2:53 PM 78.1 °F 64.9 °F 64% 29.79 in 10.0 mi South 16.1 mph 21.9 mph N/A   Mostly Cloudy
4:18 PM 75.0 °F 66.9 °F 76% 29.83 in 1.8 mi SW 6.9 mph - 0.06 in Rain Rain
4:31 PM 71.1 °F 66.0 °F 84% 29.82 in 0.8 mi Variable 3.5 mph - 0.24 in Rain Heavy Rain
4:36 PM 71.1 °F 66.0 °F 84% 29.82 in 2.0 mi South 6.9 mph - 0.24 in Rain Light Rain
4:43 PM 71.1 °F 66.0 °F 84% 29.82 in 10.0 mi SSE 11.5 mph - 0.24 in   Overcast
4:53 PM 72.0 °F 66.9 °F 84% 29.79 in 10.0 mi South 9.2 mph - 0.24 in   Mostly Cloudy
5:53 PM 75.0 °F 68.0 °F 79% 29.80 in 10.0 mi SSE 8.1 mph - N/A   Overcast
6:53 PM 73.9 °F 68.0 °F 82% 29.80 in 10.0 mi Variable 5.8 mph - 0.01 in   Mostly Cloudy
7:20 PM 73.9 °F 66.9 °F 79% 29.84 in 10.0 mi Variable 6.9 mph - N/A   Overcast
7:32 PM 73.9 °F 66.9 °F 79% 29.84 in 10.0 mi Variable 3.5 mph - N/A   Overcast
7:53 PM 73.9 °F 64.9 °F 73% 29.82 in 10.0 mi Variable 3.5 mph - N/A   Overcast
8:53 PM 72.0 °F 64.0 °F 76% 29.84 in 10.0 mi Variable 4.6 mph - N/A   Overcast
9:06 PM 72.0 °F 64.0 °F 76% 29.87 in 10.0 mi Calm Calm - N/A   Overcast
9:53 PM 70.0 °F 63.0 °F 78% 29.87 in 10.0 mi Calm Calm - N/A   Overcast
10:22 PM 70.0 °F 63.0 °F 78% 29.90 in 10.0 mi NW 3.5 mph - N/A   Overcast
10:53 PM 69.1 °F 63.0 °F 81% 29.89 in 10.0 mi NNW 3.5 mph - N/A   Overcast
11:06 PM 69.1 °F 63.0 °F 81% 29.91 in 10.0 mi North - - N/A   Overcast
11:36 PM 66.9 °F 63.0 °F 87% 29.92 in 5.0 mi NW 5.8 mph - N/A   Overcast
11:53 PM 66.0 °F 62.1 °F 87% 29.91 in 5.0 mi NNW 5.8 mph - N/A   Overcast